Kolinio Cama

Olheiro-Chefe - Navua
3 Dez 2028
Domingo
Processo

Personalidade

Adaptabilidade (12) Ambição (14) Controvérsia (13) Lealdade (11) Pressão (12) Profissionalismo (2) Espírito Esportivo (6) Temperamento (14)

Perfil

Estilo de Treinamento Democrático
Licença Nacional B
Determinação 3
Gestão de Pessoas 3
Motivação 3
Disciplina 6
Satisfação no Trabalho
100%
Fadiga
0%
Função Olheiro-Chefe
Salário 7.8K p/s
Contrato 14.03.2030

Desempenho

Comportamento Bom
Eficácia do Treinamento
19%
Desenvolvimento do Jogador
5%
Prevenção de Lesões
35%
Implementação Tática
35%

Eventos Recentes

Avaliou um jogador agora
Avaliou um jogador agora
Participou de uma reunião de recrutamento agora
Avaliou um jogador agora
Avaliou um jogador agora
Avaliou um jogador agora
Avaliou um jogador agora
Avaliou um jogador 7d atrás

Monitorando agora

491
Jogador Clube Status Habilidade Confiança Observado Última observação Último voto
Gonzalo Salega Patronato Ativo 108 / 98 40% 1 02.12.2028 -
Gerónimo Tomasetti Temperley Ativo 104 / 108 40% 1 02.12.2028 -
Elías Ayala Madryn Ativo 119 / 108 40% 1 02.12.2028 -
Luca Franco Arsenal Ativo 101 / 95 40% 1 02.12.2028 -
Jorge Sanguina Colón Ativo 126 / 121 40% 2 01.12.2028 -
Joaquín Zappacosta Morón Ativo 88 / 89 40% 1 01.12.2028 -
Lautaro Gandulfo Central Espanol Ativo 82 / 100 40% 1 01.12.2028 -
Luciano Zannier Talleres Ativo 93 / 99 40% 1 01.12.2028 -
Askhat Suyumbayev Zhetysu Ativo 75 / 83 40% 2 30.11.2028 -
Juan Pablo Rial San Telmo Ativo 93 / 103 40% 1 30.11.2028 -
Valentino Huertas Morón Ativo 115 / 96 40% 1 29.11.2028 -
Dylan Cabral Arsenal Ativo 103 / 111 40% 1 29.11.2028 -
Franco Pinoni Alvarado Ativo 98 / 87 40% 2 27.11.2028 -
Leenhan Romero Iquique Ativo 81 / 87 40% 2 27.11.2028 -
Agustín Sosa Madryn Ativo 118 / 121 40% 1 27.11.2028 -
Gabriel Carrasco Los Andes Ativo 106 / 110 40% 1 27.11.2028 -
Facundo Martínez Montevideo City Torque Ativo 93 / 107 40% 1 26.11.2028 -
Rodrigo Monserrat Colegiales Ativo 98 / 86 40% 1 26.11.2028 -
Facundo Villarreal Los Andes Ativo 88 / 101 40% 1 25.11.2028 -
Santino Sciacqua Colón Ativo 102 / 104 40% 1 25.11.2028 -
Sardor Tukhtasinov Obod Ativo 88 / 72 40% 5 24.11.2028 -
Lautaro Díaz San Martín Ativo 81 / 104 40% 1 24.11.2028 -
Josh Jeffries Harrogate Town Ativo 97 / 94 40% 1 24.11.2028 -
Fabby Clark Metallurg Ativo 95 / 85 40% 6 23.11.2028 -
Julián Bragado Morón Ativo 90 / 101 40% 3 23.11.2028 -
Diego Méndez Tacuarembo Ativo 87 / 103 40% 1 23.11.2028 -
Miguel Ceccotti Güemes Ativo 115 / 103 40% 1 23.11.2028 -
Asadbek Samariddinov Metallurg Ativo 71 / 76 40% 6 22.11.2028 -
Santiago Camacho Estudiantes Ativo 107 / 119 40% 2 22.11.2028 -
Franco Benítez Temperley Ativo 127 / 94 40% 1 22.11.2028 -
José Pérez Portuguesa Ativo 103 / 74 40% 1 22.11.2028 -
Mauro Schönfeld Morón Ativo 105 / 115 40% 1 21.11.2028 -
Nicolás Heiz Maipú Ativo 119 / 103 40% 1 21.11.2028 -
Lautaro Cano Central Córdoba SdE Ativo 105 / 103 40% 1 20.11.2028 -
Federico Ulayar Talleres Ativo 94 / 103 40% 1 20.11.2028 -
Gonzalo Melgarejo Chaco For Ever Ativo 107 / 113 40% 1 20.11.2028 -
Axel Pedrozo Almagro Ativo 104 / 76 40% 1 19.11.2028 -
Agustín Ojeda Chaco For Ever Ativo 128 / 130 40% 1 19.11.2028 -
Omar Bautista Gerez Central Córdoba SdE Ativo 70 / 106 40% 1 18.11.2028 -
Diego Guallama All Boys Ativo 109 / 130 40% 1 18.11.2028 -
James Dadge Northampton Town Ativo 83 / 102 40% 1 18.11.2028 -
Reynaldo Fontalvo Real Cartagena Ativo 122 / 127 40% 1 18.11.2028 -
Fareed Sadat Bhayangkara Presisi Ativo 66 / 65 40% 10 17.11.2028 -
Johan Portilla Deportivo Pasto Ativo 105 / 109 40% 1 17.11.2028 -
Alessandro Livieri Ravenna Ativo 104 / 124 40% 1 17.11.2028 -
Tobias Canale Almagro Ativo 88 / 100 40% 1 17.11.2028 -
Nadir Sánchez Central Córdoba SdE Ativo 81 / 114 40% 1 17.11.2028 -
Alan Luque Chaco For Ever Ativo 97 / 97 40% 1 16.11.2028 -
Lucas Más Maipú Ativo 111 / 84 40% 1 16.11.2028 -
Juan Peinipil Madryn Ativo 107 / 112 40% 1 16.11.2028 -
Yeison Moreno Alianza Petrolera Ativo 92 / 122 40% 1 15.11.2028 -
Bill Cacace Team Wellington Ativo 87 / 87 40% 1 15.11.2028 -
Alex Walpole Huddersfield Town Ativo 52 / 82 40% 1 15.11.2028 -
Aphile Ngobese Aktobe Ativo 94 / 82 40% 11 13.11.2028 -
Gavriil Chizhov Akzhaiyk Ativo 62 / 94 40% 4 13.11.2028 -
Deklan Nelson Hawke's Bay United Ativo 60 / 76 40% 3 13.11.2028 -
Yusuf Meilana Persik Ativo 70 / 68 40% 1 13.11.2028 -
Kamronbek Hamroyev Mashal Ativo 64 / 69 40% 6 12.11.2028 -
Septian Bagaskara PSM Ativo 87 / 77 40% 5 12.11.2028 -
Nikita Shevchenko Lokomotiv Ativo 80 / 101 40% 3 12.11.2028 -
Chris Cacace Team Wellington Ativo 92 / 96 40% 2 12.11.2028 -
Yamato Naito Ventforet Kofu Ativo 71 / 75 40% 20 10.11.2028 -
Noah Lockyer Waitakere United Ativo 71 / 79 40% 3 10.11.2028 -
Saar Schwartz Hapoel Acre Ativo 81 / 71 40% 4 09.11.2028 -
Ryan De Vries Waitakere United Ativo 78 / 70 40% 4 09.11.2028 -
Michael Boxall Canterbury United Ativo 92 / 95 40% 1 09.11.2028 -
Winston Sutton Southern United Ativo 97 / 95 40% 1 09.11.2028 -
Morel Ondobo Abena Jubilo Iwata Ativo 74 / 86 40% 1 08.11.2028 -
Anvar Murodov Metallurg Ativo 98 / 77 40% 5 07.11.2028 -
Teguh Trisnanda Borneo Ativo 89 / 79 40% 2 07.11.2028 -
Nurhidayat PSBS Biak Ativo 74 / 76 40% 1 07.11.2028 -
Wasi Ngala Zhetysu Ativo 56 / 71 40% 3 06.11.2028 -
Daichi Suzuki Sagan Tosu Ativo 87 / 73 40% 19 05.11.2028 -
Holomo Mpeli Vissel Kobe Ativo 101 / 87 40% 3 05.11.2028 -
Callum McCowatt Mashal Ativo 57 / 56 40% 1 05.11.2028 -
Dennis Munyovi Bunyodkor Ativo 65 / 66 40% 3 04.11.2028 -
Merei Zhambyl Taraz Ativo 93 / 84 40% 1 04.11.2028 -
Islambek Kuat Akzhaiyk Ativo 67 / 88 40% 8 03.11.2028 -
Al-Zahri Atyrau Ativo 77 / 67 40% 5 03.11.2028 -
Farruhjon Qodirov Bukhara Ativo 68 / 70 40% 10 02.11.2028 -
O'ktamjon Abdumalikov Kokand 1912 Ativo 80 / 60 40% 21 01.11.2028 -
Michael Lockyer Canterbury United Ativo 76 / 87 40% 4 01.11.2028 -
Fortune Omoto Semen Padang Ativo 93 / 83 40% 13 01.11.2028 -
Sirgio Kammies Western Sydney Wanderers Ativo 102 / 101 40% 2 01.11.2028 -
Khaled Tawhid Bnei Yehuda Ativo 89 / 102 40% 2 01.11.2028 -
Sardor Sadullayev Metallurg Ativo 72 / 95 40% 2 01.11.2028 -
Siyabonga Mkhize Avispa Fukuoka Ativo 66 / 73 40% 2 31.10.2028 -
Chris Kirwan Hawke's Bay United Ativo 103 / 95 40% 1 31.10.2028 -
G'anisher Qodirov Shortan Ativo 68 / 87 40% 19 30.10.2028 -
Abdurahmon Komilov Andijon Ativo 83 / 87 40% 3 30.10.2028 -
Sho Yamamoto Persis Ativo 107 / 103 40% 1 30.10.2028 -
Aji Kusuma Madura United Ativo 80 / 61 40% 6 28.10.2028 -
Riley Foxe Perth Glory Ativo 93 / 102 40% 3 28.10.2028 -
George Plusnin Brisbane Roar Ativo 76 / 100 40% 2 28.10.2028 -
Älisher Süleimen Shakhter Ativo 81 / 69 40% 2 28.10.2028 -
Sanzhar Kemelbek Taraz Ativo 91 / 74 40% 3 28.10.2028 -
Idris Bashir Sydney FC Ativo 74 / 90 40% 1 28.10.2028 -
Richard Monday Ubong Vissel Kobe Ativo 98 / 73 40% 6 27.10.2028 -
Areya Prasad Auckland City Ativo 75 / 64 40% 4 27.10.2028 -
Sergio Villalpando Kawasaki Frontale Ativo 79 / 86 40% 7 27.10.2028 -
Jordan Iwhiwhu Southern United Ativo 78 / 78 40% 1 27.10.2028 -
Dejan Račić Bhayangkara Presisi Ativo 106 / 86 40% 13 26.10.2028 -
Eksel Runtukahu Persija Ativo 74 / 75 40% 2 26.10.2028 -
Chris Stamatelopoulos WaiBOP United Ativo 111 / 112 40% 1 25.10.2028 -
Joe Payne Southern United Ativo 95 / 87 40% 1 23.10.2028 -
Harrison Shillington Melbourne Victory Ativo 82 / 97 40% 5 22.10.2028 -
Jake Garbett Persik Ativo 78 / 72 40% 2 22.10.2028 -
William Walker Hawke's Bay United Ativo 89 / 93 40% 1 22.10.2028 -
Brandon Brocksom Vegalta Sendai Ativo 90 / 93 40% 1 22.10.2028 -
Matt Boxall Hawke's Bay United Ativo 104 / 102 40% 1 22.10.2028 -
Matt Smith Waitakere United Ativo 57 / 69 40% 1 22.10.2028 -
Edo Febriansyah Dewa United Ativo 71 / 82 40% 6 21.10.2028 -
Elvis Osok AGMK Ativo 68 / 79 40% 1 21.10.2028 -
Noah Wood Canterbury United Ativo 73 / 80 40% 1 20.10.2028 -
Shoxmalik Komilov Navbahor Ativo 113 / 107 40% 1 20.10.2028 -
Davronbek Usmonov Nasaf Ativo 98 / 82 40% 4 19.10.2028 -
Marco Garbett Hawke's Bay United Ativo 73 / 65 40% 4 19.10.2028 -
Rizky Dwi Febrianto Bali United Ativo 70 / 83 40% 1 19.10.2028 -
Tomás Leuzzi Vegalta Sendai Ativo 105 / 103 40% 1 19.10.2028 -
Daniel Atlan Maccabi Netanya Ativo 98 / 76 40% 3 18.10.2028 -
Or Yitzhak Bnei Yehuda Ativo 93 / 81 40% 7 17.10.2028 -
Chris Van Hattum Southern United Ativo 91 / 88 40% 4 17.10.2028 -
Maxim Orazov Akzhaiyk Ativo 61 / 78 40% 3 15.10.2028 -
Michael Sutton Southern United Ativo 67 / 77 40% 2 15.10.2028 -
Zakhar Porokh Okzhetpes Ativo 67 / 72 40% 1 15.10.2028 -
Rakhmatsho Rakhmatzoda Persijap Ativo 82 / 98 40% 3 14.10.2028 -
Fidel Origa Ba Ativo 106 / 97 40% 3 14.10.2028 -
Tommy Wood Hawke's Bay United Ativo 91 / 84 40% 3 14.10.2028 -
Kayne Razmovski Rewa Ativo 73 / 62 40% 11 13.10.2028 -
Andy Setyo PSIM Ativo 69 / 73 40% 1 13.10.2028 -
Yacob Sayuri Maluku Utara United Ativo 69 / 69 40% 9 11.10.2028 -
Shohruh Eshbo'tayev Shortan Ativo 87 / 84 40% 2 11.10.2028 -
Awan Setho Bhayangkara Presisi Ativo 73 / 90 40% 3 11.10.2028 -
Cameron Kirwan Waitakere United Ativo 72 / 91 40% 3 11.10.2028 -
Bobomurod Bozorov Qizilqum Ativo 71 / 94 40% 8 10.10.2028 -
Shodiyor Shodiboyev Lokomotiv Ativo 71 / 99 40% 3 09.10.2028 -
Will McKay Macarthur FC Ativo 94 / 98 40% 7 09.10.2028 -
Dimas Drajad Persib Ativo 77 / 65 40% 5 09.10.2028 -
Deklan Van Hattum Waitakere United Ativo 86 / 88 40% 2 08.10.2028 -
Koko Araya Persebaya Ativo 92 / 88 40% 1 08.10.2028 -
Kashif Bangnagande FC Tokyo Ativo 92 / 93 40% 3 06.10.2028 -
Jayson Nettey Hapoel Kfar Saba Ativo 66 / 55 40% 4 05.10.2028 -
Felipe Fuentes Bnei Yehuda Ativo 68 / 76 40% 3 05.10.2028 -
Ryan Nelson WaiBOP United Ativo 102 / 102 40% 1 05.10.2028 -
Bernard Bukari Macarthur FC Ativo 75 / 62 40% 5 04.10.2028 -
Humoyunshoh Sayyotov Qizilqum Ativo 96 / 96 40% 1 04.10.2028 -
Raka Cahyana PSIM Ativo 53 / 62 40% 6 03.10.2028 -
Muhannad Barah Aktobe Ativo 85 / 70 40% 2 03.10.2028 -
Enzo Lemos Avispa Fukuoka Ativo 95 / 111 40% 1 03.10.2028 -
Diyorbek Haliyev Shortan Ativo 74 / 70 40% 1 03.10.2028 -
Kosta Bell Southern United Ativo 62 / 78 40% 3 02.10.2028 -
Tze Xuan Loke Wellington Phoenix Ativo 103 / 102 40% 9 02.10.2028 -
Emerson Souza Madura United Ativo 98 / 82 40% 2 02.10.2028 -
Sairusi Nalaubu Lautoka Ativo 81 / 80 40% 21 30.09.2028 -
Thamer Al-Arjan Semen Padang Ativo 71 / 83 40% 1 30.09.2028 -
Adi Satryo Arema Ativo 70 / 70 40% 7 29.09.2028 -
Quvonchbek Abrayev Lokomotiv Ativo 89 / 85 40% 4 29.09.2028 -
Joseph Ogenda Atyrau Ativo 80 / 88 40% 2 29.09.2028 -
Oussama Fatmi Lautoka Ativo 77 / 80 40% 15 28.09.2028 -
Alex Sutton Hawke's Bay United Ativo 95 / 110 40% 1 28.09.2028 -
Hwang Myung-Hyeon PSBS Biak Ativo 89 / 80 40% 1 28.09.2028 -
Enock Asubonteng Western Sydney Wanderers Ativo 95 / 92 40% 1 28.09.2028 -
Ricki Ariansyah Semen Padang Ativo 67 / 64 40% 1 24.09.2028 -
Harrison Devenish-Meares Western Sydney Wanderers Ativo 96 / 114 40% 2 22.09.2028 -
Rendy Oscario Semen Padang Ativo 73 / 75 40% 6 21.09.2028 -
Raia Irvanza Dewa United Ativo 81 / 82 40% 1 21.09.2028 -
Shohrux Mahmudhojiyev Lokomotiv Ativo 75 / 86 40% 3 20.09.2028 -
Wahyudi Hamisi Persijap Ativo 78 / 88 40% 6 19.09.2028 -
Haruna Attah AGMK Ativo 91 / 99 40% 4 19.09.2028 -
Sani Rizki PSBS Biak Ativo 68 / 66 40% 2 19.09.2028 -
Francis Bell WaiBOP United Ativo 107 / 94 40% 1 19.09.2028 -
Raymond Matlamela Rewa Ativo 74 / 81 40% 4 18.09.2028 -
Bahodir Halilov Nasaf Ativo 85 / 75 40% 3 16.09.2028 -
Michael Garbett Hawke's Bay United Ativo 70 / 83 40% 2 16.09.2028 -
Bakhtiiar Aldashev Melbourne Victory Ativo 78 / 79 40% 1 16.09.2028 -
Takumi Yasuno Vegalta Sendai Ativo 59 / 67 40% 8 15.09.2028 -
Behruz Soatov Rewa Ativo 76 / 59 40% 9 14.09.2028 -
Tom Rostovsky Hapoel Raanana Ativo 78 / 80 40% 2 14.09.2028 -
Barrie Limoki Nadroga Ativo 68 / 70 40% 7 13.09.2028 -
Emeka Nwabulu Nagoya Grampus Ativo 107 / 106 40% 2 13.09.2028 -
Abdulmajid Usman Arema Ativo 66 / 67 40% 1 13.09.2028 -
Ellis Spikner Hapoel Acre Ativo 84 / 59 40% 1 11.09.2028 -
Shivam Naidu Lautoka Ativo 58 / 67 40% 2 10.09.2028 -
Luke Vickery Macarthur FC Ativo 93 / 103 40% 17 09.09.2028 -
Lucas Scicluna Perth Glory Ativo 95 / 93 40% 6 09.09.2028 -
Khayalethu Mzimela Persebaya Ativo 70 / 97 40% 1 09.09.2028 -
Diky Indrayana Persib Ativo 65 / 66 40% 1 09.09.2028 -
Dendy Sulistyawan Bhayangkara Presisi Ativo 75 / 73 40% 6 08.09.2028 -
Kauã Rodrigo Macarthur FC Ativo 91 / 91 40% 5 08.09.2028 -
Jahongir Mamatqulov Qizilqum Ativo 63 / 75 40% 12 07.09.2028 -
Rafael Andrade Rewa Ativo 68 / 79 40% 14 06.09.2028 -
Tim Lewis Canterbury United Ativo 69 / 82 40% 2 06.09.2028 -
Isroiljon Tursunboyev Metallurg Ativo 76 / 79 40% 10 06.09.2028 -
James Lockyer Hawke's Bay United Ativo 68 / 72 40% 5 05.09.2028 -
Muslimbek Habibullayev Navbahor Ativo 78 / 91 40% 8 04.09.2028 -
Razak Abdullah Sydney FC Ativo 84 / 94 40% 3 04.09.2028 -
Asilbek No'monov Nasaf Ativo 87 / 87 40% 3 02.09.2028 -
Reza Arya Pratama Persebaya Ativo 92 / 70 40% 5 02.09.2028 -
Fayzullobek Jumanqo'ziyev Qizilqum Ativo 101 / 92 40% 1 02.09.2028 -
Marco Nelson Canterbury United Ativo 66 / 86 40% 3 01.09.2028 -
Ädilkhan Taňzharyqov Tobol Ativo 99 / 73 40% 9 31.08.2028 -
Mohammad Khanafi PSM Ativo 71 / 53 40% 3 31.08.2028 -
Robi Darwis PSBS Biak Ativo 52 / 53 40% 1 31.08.2028 -
Anthony Didulica Perth Glory Ativo 82 / 107 40% 4 30.08.2028 -
Buyung Ismu Lessy Persijap Ativo 86 / 79 40% 3 29.08.2028 -
Sardorbek Saidov Shortan Ativo 75 / 90 40% 3 27.08.2028 -
Davel Damen Akzhaiyk Ativo 76 / 97 40% 2 25.08.2028 -
Chris Sutton Hawke's Bay United Ativo 55 / 58 40% 1 25.08.2028 -
Tapji Dawit Perth Glory Ativo 63 / 63 40% 1 24.08.2028 -
Nabil Begg Ba Ativo 55 / 68 40% 2 23.08.2028 -
José Meza Bhayangkara Presisi Ativo 53 / 61 40% 2 21.08.2028 -
Cyrus Margono Persija Ativo 81 / 77 40% 2 20.08.2028 -
Ori Azulay Hapoel Raanana Ativo 73 / 60 40% 1 17.08.2028 -
Umid Urunov Obod Ativo 90 / 70 40% 1 17.08.2028 -
Sho Sannomiya Taraz Ativo 108 / 78 40% 1 16.08.2028 -
Matías Nicosia Central Coast Mariners Ativo 89 / 80 40% 13 15.08.2028 -
Luka Vicelich Adelaide United Ativo 100 / 107 40% 2 15.08.2028 -
James Hilton Macarthur FC Ativo 80 / 90 40% 11 14.08.2028 -
Reuben Juma Dewa United Ativo 52 / 66 40% 1 14.08.2028 -
Owen Lockyer Waitakere United Ativo 82 / 81 40% 3 12.08.2028 -
Mxolisi Bhengu Kokand 1912 Ativo 76 / 68 40% 2 12.08.2028 -
Göktan Cörüt Gamba Osaka Ativo 66 / 89 40% 3 12.08.2028 -
Theo Numberi Dewa United Ativo 74 / 81 40% 9 11.08.2028 -
Riyatno Abiyoso PSIM Ativo 86 / 63 40% 1 10.08.2028 -
Jayden Smith Wellington Phoenix Ativo 98 / 93 40% 6 09.08.2028 -
Yehonatan Segev Maccabi Petach Tikva Ativo 80 / 100 40% 2 09.08.2028 -
Nūrbol Anuarbekov Zhetysu Ativo 102 / 81 40% 3 07.08.2028 -
Hokky Caraka Dewa United Ativo 55 / 72 40% 3 07.08.2028 -
Jens Raven Bali United Ativo 81 / 80 40% 6 06.08.2028 -
Farel Putra Wardani Semen Padang Ativo 75 / 71 40% 1 04.08.2028 -
Razi Abu Hamdan Hapoel Kfar Saba Ativo 91 / 91 40% 1 04.08.2028 -
Rauof Jbareen Hapoel Acre Ativo 91 / 83 40% 1 03.08.2028 -
Septian David Maluku Utara United Ativo 76 / 75 40% 5 30.07.2028 -
Bill Lockyer Hawke's Bay United Ativo 75 / 76 40% 2 30.07.2028 -
Ryo Watanabe Jubilo Iwata Ativo 117 / 78 40% 1 30.07.2028 -
Joel Bertolissio Newcastle Jets Ativo 94 / 83 40% 4 27.07.2028 -
Marko Živanović Akzhaiyk Ativo 77 / 83 40% 3 26.07.2028 -
Israel Monga Adelaide United Ativo 87 / 87 40% 3 24.07.2028 -
Andriano Lebib Perth Glory Ativo 107 / 110 40% 1 24.07.2028 -
Ibrohim G'anixonov Mashal Ativo 84 / 98 40% 1 22.07.2028 -
Yoga Adiatama Persik Ativo 63 / 67 40% 1 22.07.2028 -
Igor' Trofimets Tobol Ativo 96 / 84 40% 1 21.07.2028 -
Jarrod Carluccio Western Sydney Wanderers Ativo 96 / 96 40% 2 20.07.2028 -
Prince Kallon PSM Ativo 83 / 75 40% 7 19.07.2028 -
Matlahatsi Mampane Lautoka Ativo 79 / 71 40% 6 18.07.2028 -
Samandar Toirov Nasaf Ativo 58 / 67 40% 6 16.07.2028 -
Abidemi Alli Melbourne City Ativo 92 / 94 40% 2 14.07.2028 -
Abdulaziz Al-Hadhood Okzhetpes Ativo 78 / 77 40% 6 13.07.2028 -
Nematulloh Rustamjonov Andijon Ativo 86 / 70 40% 1 13.07.2028 -
Adhamjon Musulmonov Shortan Ativo 91 / 86 40% 1 13.07.2028 -
Umidjon Hamroyev Lokomotiv Ativo 90 / 103 40% 4 10.07.2028 -
Finn McKenlay Central Coast Mariners Ativo 94 / 99 40% 2 10.07.2028 -
Aporosa Yada Labasa Ativo 59 / 53 40% 7 06.07.2028 -
Neemish Prasad Rewa Ativo 64 / 58 40% 1 05.07.2028 -
Mahmud Jo'raboyev Metallurg Ativo 70 / 78 40% 1 04.07.2028 -
Jacques Thémopelé PSM Ativo 79 / 80 40% 2 03.07.2028 -
Will Kennedy WaiBOP United Ativo 79 / 85 40% 1 03.07.2028 -
Saidu Lawan Dewa United Ativo 85 / 77 40% 10 02.07.2028 -
Niv Tubul Hapoel Kfar Saba Ativo 67 / 67 40% 9 01.07.2028 -
Usman Sadiq Lokomotiv Ativo 64 / 70 40% 2 30.06.2028 -
Vlatko Stojanovski Mashal Ativo 99 / 79 40% 1 30.06.2028 -
Diego Latorre Sagan Tosu Ativo 95 / 90 40% 1 30.06.2028 -
Arian Pardo Adelaide United Ativo 99 / 97 40% 6 27.06.2028 -
Nathan Amanatidis Wellington Phoenix Ativo 93 / 105 40% 1 25.06.2028 -
Sam Tuiloma Waitakere United Ativo 72 / 64 40% 4 21.06.2028 -
Leon Kofana Rewa Ativo 59 / 69 40% 2 16.06.2028 -
Simione Nabenu Suva Ativo 70 / 65 40% 4 14.06.2028 -
Randy Bakari Persebaya Ativo 58 / 60 40% 1 14.06.2028 -
Yoav Dejaldeti Bnei Yehuda Ativo 69 / 94 40% 6 12.06.2028 -
Joela Biuvanua Lautoka Ativo 64 / 76 40% 4 12.06.2028 -
Laisenia Nawalu Nasinu Ativo 52 / 49 51% 1 12.06.2028 -
Kishan Sami Ba Ativo 70 / 73 40% 3 10.06.2028 -
Khaled Kamal Ba Ativo 92 / 85 40% 11 10.06.2028 -
Kosta Just Hawke's Bay United Ativo 62 / 84 40% 3 06.06.2028 -
Lior Shugar Hapoel Beer Sheva Ativo 73 / 82 40% 2 06.06.2028 -
Lebogang Mswane Hapoel Beer Sheva Ativo 66 / 78 40% 1 05.06.2028 -
Ozodbek Marufov Nadroga Ativo 68 / 72 40% 8 04.06.2028 -
Azamat Soyibov Kokand 1912 Ativo 77 / 71 40% 5 04.06.2028 -
Ali Auglah Central Coast Mariners Ativo 89 / 103 40% 6 31.05.2028 -
Gianluca Pandeynuwu Persis Ativo 79 / 68 40% 5 30.05.2028 -
Abongwe Newman Lautoka Ativo 71 / 79 40% 7 28.05.2028 -
Joshua Inserra Melbourne Victory Ativo 102 / 95 40% 5 27.05.2028 -
Akam Moses PSIM Ativo 73 / 64 40% 6 26.05.2028 -
Reuben Otieno Neftchi Ativo 82 / 71 40% 6 25.05.2028 -
Shota Uchiyama Albirex Niigata Ativo 77 / 90 40% 3 25.05.2028 -
Roy Buganim Hapoel Kfar Saba Rejeitado 84 / 64 40% 6 23.05.2028 -
Deri Corfe PSIM Ativo 103 / 74 40% 1 23.05.2028 -
Lawrence Wong Newcastle Jets Ativo 112 / 110 40% 1 22.05.2028 -
Amadou Diallo Vegalta Sendai Rejeitado 90 / 87 40% 2 20.05.2028 -
Mishal Saad Hapoel Raanana Ativo 78 / 66 40% 3 19.05.2028 -
Ryan Kurnia Bhayangkara Presisi Ativo 62 / 83 40% 5 19.05.2028 -
Rifky Dwi Septiawan Persita Ativo 90 / 61 40% 1 18.05.2028 -
Imanol García Persik Ativo 104 / 90 40% 1 18.05.2028 -
Isac Galván Omiya Ardija Ativo 59 / 67 40% 1 17.05.2028 -
Arkhan Kaka Persis Ativo 69 / 76 40% 3 13.05.2028 -
Juni Antara Bhayangkara Presisi Ativo 69 / 70 40% 2 13.05.2028 -
Ordabasy Taykenov Okzhetpes Ativo 79 / 103 40% 1 13.05.2028 -
Kristian Popovic Central Coast Mariners Rejeitado 103 / 85 40% 4 12.05.2028 -
Wataru Kamijo Sydney FC Ativo 86 / 101 40% 7 09.05.2028 -
Asilbek Tojiddinov Andijon Ativo 87 / 72 40% 7 05.05.2028 -
Zacharie Ebogo Adelaide United Ativo 71 / 71 40% 2 05.05.2028 -
Alex Nelson Navbahor Ativo 64 / 93 40% 1 04.05.2028 -
Success Makanjuola Adelaide United Ativo 81 / 90 40% 2 03.05.2028 -
Reagan Ogle Melbourne City Ativo 85 / 101 40% 6 30.04.2028 -
Make Aldo Maulidino PSIM Ativo 60 / 81 40% 8 30.04.2028 -
Paris Domfeh Auckland City Ativo 77 / 87 40% 3 30.04.2028 -
Matt Dench Perth Glory Ativo 89 / 93 40% 7 29.04.2028 -
Dane Barbarouses Southern United Ativo 81 / 81 40% 1 27.04.2028 -
Jake Just Team Wellington Ativo 76 / 91 40% 1 27.04.2028 -
Lucas Cardoso Maluku Utara United Ativo 98 / 94 40% 2 25.04.2028 -
Sardorbek Hoshimov Sogdiana Ativo 84 / 80 40% 1 25.04.2028 -
Diego Rosales Sanfrecce Hiroshima Ativo 91 / 103 40% 1 22.04.2028 -
Alex Guaricuyu Kawasaki Frontale Ativo 101 / 105 40% 1 22.04.2028 -
Mohammed Alam Lautoka Ativo 65 / 67 40% 3 21.04.2028 -
Dylan Tevreden Gamba Osaka Ativo 104 / 86 40% 2 21.04.2028 -
Jesse Gewer AGMK Ativo 77 / 82 40% 1 20.04.2028 -
Etonia Dogalau Ba Ativo 55 / 53 40% 8 19.04.2028 -
Guy Bar Hapoel Tel Aviv Ativo 65 / 87 40% 4 18.04.2028 -
Eldor Adhamov Sogdiana Ativo 68 / 78 40% 3 16.04.2028 -
Harlan Suardi Bhayangkara Presisi Ativo 66 / 89 40% 5 09.04.2028 -
Tzuri Zeituni Maccabi Netanya Ativo 64 / 87 40% 3 09.04.2028 -
Owen Lewis Southern United Ativo 68 / 53 40% 5 09.04.2028 -
Tshepang Mogotlane Aktobe Ativo 59 / 76 40% 1 07.04.2028 -
Zach Lisolajski Melbourne City Ativo 100 / 94 40% 5 06.04.2028 -
Ryan Barbarouses Canterbury United Ativo 58 / 67 40% 1 06.04.2028 -
Stefan McCowatt Hawke's Bay United Ativo 66 / 86 40% 4 05.04.2028 -
Ibrahim Adel Sydney FC Ativo 89 / 93 40% 2 03.04.2028 -
Tin Martić Semen Padang Ativo 88 / 94 40% 1 03.04.2028 -
Dostonbek To'xtaboyev Mashal Ativo 93 / 73 40% 4 01.04.2028 -
Riley Dalziell Auckland FC Ativo 94 / 105 40% 4 28.03.2028 -
Rakasurya Handika Borneo Ativo 71 / 51 40% 1 26.03.2028 -
Husna Al Malik PSM Ativo 76 / 65 40% 1 22.03.2028 -
Miswar Saputra Madura United Ativo 84 / 86 40% 8 20.03.2028 -
Miraziz Mahamadaliyev Andijon Ativo 81 / 64 40% 8 18.03.2028 -
Fabian Talladira Adelaide United Ativo 96 / 102 40% 4 11.03.2028 -
Federico Bonetto Melbourne City Ativo 93 / 97 40% 4 08.03.2028 -
Jeremy Foo Auckland City Ativo 83 / 87 40% 2 08.03.2028 -
Gideon Asante Yeboah AGMK Ativo 63 / 72 40% 1 08.03.2028 -
Ravid Olezki Hapoel Tel Aviv Ativo 79 / 91 40% 1 03.03.2028 -
Tadiwanashe Kuzamba Macarthur FC Ativo 105 / 107 40% 1 03.03.2028 -
Mohir Komilov AGMK Ativo 65 / 67 40% 1 01.03.2028 -
Orlando Thorpe Nasaf Ativo 59 / 71 40% 4 25.02.2028 -
Mirjalol Jumayev Shortan Ativo 99 / 98 40% 4 25.02.2028 -
Seth Clark Sydney FC Ativo 96 / 90 40% 4 24.02.2028 -
Saian Mūqanov Okzhetpes Ativo 100 / 67 40% 2 23.02.2028 -
Samandar Ochilov Mashal Ativo 78 / 72 40% 4 20.02.2028 -
Bill Singh Bnei Yehuda Ativo 71 / 87 40% 1 20.02.2028 -
Chinanu Victor Rewa Ativo 64 / 85 40% 9 19.02.2028 -
Maicon Silva Semen Padang Ativo 58 / 81 40% 10 18.02.2028 -
Ergash Ismoilov Mashal Ativo 100 / 86 40% 4 17.02.2028 -
Sheva Sanggasi Persijap Ativo 43 / 61 40% 3 14.02.2028 -
Hilman Syah PSM Ativo 90 / 60 40% 2 14.02.2028 -
Isaac Lee Hapoel Raanana Ativo 73 / 62 40% 1 14.02.2028 -
Feby Eka Putra Persis Ativo 85 / 89 40% 1 12.02.2028 -
Mark Isozaki Omiya Ardija Ativo 74 / 92 40% 7 11.02.2028 -
Vladimir Vomenko Okzhetpes Ativo 73 / 92 40% 1 11.02.2028 -
Azizbek Erimbetov Neftchi Ativo 100 / 86 40% 1 10.02.2028 -
Shahzod Turopov Qizilqum Ativo 62 / 92 40% 5 08.02.2028 -
Sūltan Shymyrkhan Shakhter Ativo 84 / 71 40% 3 07.02.2028 -
Habibi Jusuf Borneo Ativo 67 / 61 40% 7 07.02.2028 -
Yan Shicot Beitar Jerusalem Ativo 61 / 65 40% 2 05.02.2028 -
Grigol Chabradze Qizilqum Ativo 102 / 81 40% 2 03.02.2028 -
Dias Orynbasar Atyrau Ativo 78 / 73 40% 1 03.02.2028 -
Tyler Williams Sydney FC Ativo 82 / 87 40% 4 02.02.2028 -
Artem Litosh Shakhter Ativo 94 / 90 40% 1 31.01.2028 -
Nūrlan Däirov Taraz Ativo 97 / 83 40% 1 25.01.2028 -
Sitiveni Rakai Labasa Ativo 73 / 47 40% 4 20.01.2028 -
Iqboljon Malikjonov Kokand 1912 Ativo 76 / 72 40% 1 20.01.2028 -
Stanislav Samoilov Zhetysu Ativo 68 / 72 40% 5 14.01.2028 -
Oran Shoval Beitar Jerusalem Ativo 60 / 60 40% 1 14.01.2028 -
Lucas Abarca Ba Ativo 94 / 96 40% 2 11.01.2028 -
Abdoulaye Cissé Tobol Ativo 106 / 88 40% 1 11.01.2028 -
Ben van Dorssen Ba Ativo 56 / 59 40% 1 06.01.2028 -
Sandro Embaló PSBS Biak Ativo 81 / 86 40% 3 04.01.2028 -
Aqil Savik Bhayangkara Presisi Ativo 80 / 78 40% 8 02.01.2028 -
Avazxon Mamatxo'jayev Mashal Ativo 89 / 74 40% 2 01.01.2028 -
Ravikash Krishna Tailevu Naitasiri Ativo 47 / 56 40% 1 31.12.2027 -
Adre Arido Metallurg Ativo 58 / 67 40% 4 28.12.2027 -
Erkebūlan Rakhmetulla Atyrau Ativo 88 / 82 40% 1 23.12.2027 -
Iliyas Äbil Hapoel Acre Ativo 71 / 64 40% 1 22.12.2027 -
Patrick Joseph Ba Ativo 68 / 70 40% 3 20.12.2027 -
Ilham Udin Armayn PSBS Biak Ativo 92 / 79 40% 5 17.12.2027 -
Jefferson Persis Ativo 64 / 77 40% 7 16.12.2027 -
Michael Barbarouses Hawke's Bay United Ativo 50 / 73 40% 2 16.12.2027 -
Cahya Supriadi PSIM Ativo 70 / 69 40% 5 15.12.2027 -
Achmad Iqbal Bachtiar Semen Padang Ativo 51 / 57 40% 2 07.12.2027 -
Asror G'ofurov Qizilqum Ativo 87 / 108 40% 1 06.12.2027 -
Sūltan Būsyrmanov Tobol Ativo 91 / 79 40% 6 05.12.2027 -
Noah McCann Central Coast Mariners Ativo 71 / 93 40% 1 05.12.2027 -
Madiiar Nūraly Taraz Ativo 96 / 72 40% 1 04.12.2027 -
Yassin Atef Ventforet Kofu Ativo 83 / 80 40% 1 30.11.2027 -
Lyle Chatburn Auckland City Ativo 80 / 94 40% 2 29.11.2027 -
Axel Bakoude Hapoel Kiryat Shmona Ativo 77 / 61 40% 1 28.11.2027 -
Rosyad Setiawan Semen Padang Ativo 58 / 77 40% 5 26.11.2027 -
Tomás Aguirre Omiya Ardija Ativo 70 / 62 40% 2 20.11.2027 -
Mendonça Madura United Ativo 102 / 81 40% 2 10.11.2027 -
Akmal Nematov Obod Ativo 66 / 92 40% 2 08.11.2027 -
Ricky Kambuaya Dewa United Ativo 83 / 72 40% 1 30.10.2027 -
Tomoya Kubo Shonan Bellmare Ativo 83 / 79 40% 1 25.10.2027 -
Älisher Sulei Taraz Ativo 74 / 68 40% 3 21.10.2027 -
Viktor Ziabko Okzhetpes Ativo 77 / 73 40% 2 18.10.2027 -
Víctor Barona Melbourne City Ativo 77 / 89 40% 2 15.10.2027 -
Ryan Kalms Melbourne City Ativo 84 / 102 40% 3 13.10.2027 -
Iran Madura United Ativo 79 / 63 40% 1 20.09.2027 -
Tim Stamatelopoulos Canterbury United Ativo 90 / 73 40% 1 19.09.2027 -
Isikeli Sevanaia Rewa Ativo 49 / 45 40% 9 06.09.2027 -
Junior Mpanza Arema Ativo 56 / 61 40% 1 06.09.2027 -
Wonderson Yakubu Hapoel Raanana Ativo 93 / 83 40% 5 21.08.2027 -
Yuda Editya Madura United Ativo 84 / 54 40% 4 19.08.2027 -
Alex Nunes Newcastle Jets Ativo 86 / 86 40% 1 19.08.2027 -
Darold Kakasi Ba Ativo 67 / 61 40% 1 13.08.2027 -
Gavin Kwan Adsit Borneo Ativo 62 / 75 40% 1 13.08.2027 -
Daniel Cohen Maccabi Netanya Ativo 59 / 75 40% 2 02.08.2027 -
Kléber Carranza Vegalta Sendai Ativo 94 / 109 40% 3 26.07.2027 -
Michael Woud Auckland FC Ativo 99 / 98 40% 2 23.07.2027 -
Kou Gotou Shakhter Ativo 78 / 68 40% 1 23.07.2027 -
Iowane Matanisiga Labasa Ativo 58 / 50 40% 2 21.07.2027 -
Deklan Wood Waitakere United Ativo 65 / 64 40% 2 21.07.2027 -
Julio Pérez Sagan Tosu Ativo 92 / 87 40% 1 16.07.2027 -
Yuval Kretzo Maccabi Petach Tikva Ativo 86 / 93 40% 3 11.07.2027 -
Tevita Waranaivalu Rewa Ativo 73 / 52 40% 3 03.07.2027 -
Azat Nurgaliev Akzhaiyk Ativo 49 / 71 40% 1 02.07.2027 -
Murodjon Komilov Kokand 1912 Ativo 83 / 91 40% 1 30.06.2027 -
Toshikazu Teruuchi Urawa Reds Ativo 67 / 92 40% 5 29.06.2027 -
Ori Hassan Bnei Yehuda Ativo 94 / 87 40% 1 26.06.2027 -
Yuran Lopes PSM Ativo 79 / 75 40% 1 14.06.2027 -
Wahyu Agong Semen Padang Ativo 61 / 71 40% 5 12.06.2027 -
Caxambu Borneo Ativo 69 / 97 40% 1 12.06.2027 -
Ravinesh Reddy Nadroga Ativo 57 / 46 40% 5 05.06.2027 -
Sairusi Qiolevu Tailevu Naitasiri Ativo 49 / 47 48% 1 03.06.2027 -
Nicolas Riveros Maccabi Petach Tikva Ativo 72 / 82 40% 1 03.06.2027 -
Beniamino Swamy Nadroga Ativo 44 / 57 48% 1 02.06.2027 -
Sardorbek Salimov Bukhara Ativo 47 / 53 40% 1 27.05.2027 -
Yofandani Pranata Dewa United Ativo 56 / 68 40% 1 24.05.2027 -
Cois Artomoro Persita Ativo 65 / 60 40% 2 22.05.2027 -
Steward Toata Nadroga Ativo 58 / 62 40% 2 19.05.2027 -
Bruce Hughes Nasinu Ativo 43 / 43 40% 1 12.05.2027 -
Og'abek Asadov Shortan Ativo 65 / 52 40% 2 07.05.2027 -
Albert Nurullayev Bukhara Ativo 62 / 88 40% 3 01.05.2027 -
Adam Przybek Persib Ativo 100 / 94 40% 3 27.04.2027 -
Yardan Yafi Persita Ativo 56 / 36 40% 3 27.04.2027 -
Adam Bell Auckland City Ativo 67 / 62 40% 2 26.04.2027 -
Amit Harel Bnei Yehuda Ativo 48 / 57 40% 2 25.04.2027 -
Setareki Hughes Rewa Ativo 54 / 53 40% 5 24.04.2027 -
Pauliasi Tulivou Nadi Ativo 65 / 54 40% 1 14.04.2027 -
Jack Warshawsky Melbourne Victory Ativo 86 / 98 40% 5 01.04.2027 -
Iosefo Verevou Tailevu Naitasiri Ativo 62 / 72 40% 1 31.03.2027 -
Samuel Gwijangge PSBS Biak Ativo 42 / 76 40% 1 29.03.2027 -
Abdul Rahman PSM Ativo 74 / 64 40% 2 22.03.2027 -
Ben Mewett Western Sydney Wanderers Ativo 76 / 67 40% 1 11.03.2027 -
Beni Feldman Maccabi Netanya Ativo 86 / 89 40% 1 09.03.2027 -
Fransiskus Alesandro Persik Ativo 39 / 49 40% 1 23.02.2027 -
Ahmad Nur Hardianto Persita Ativo 83 / 72 40% 1 08.02.2027 -
Sitiveni Cavuilagi Lautoka Ativo 52 / 72 40% 1 05.02.2027 -
Bautista Alonso Omiya Ardija Ativo 72 / 69 40% 1 29.01.2027 -
Pablo Martínez Brisbane Roar Ativo 78 / 78 40% 1 23.01.2027 -
Alijon Bekmurodov Bunyodkor Ativo 77 / 79 40% 1 23.01.2027 -
Sulton Rahmatov Qizilqum Ativo 47 / 50 40% 3 18.01.2027 -
Alper Özdemi̇r Kokand 1912 Ativo 86 / 67 40% 1 17.01.2027 -
Yosh Strimling Avispa Fukuoka Ativo 91 / 91 40% 1 15.01.2027 -
Favio Funes Western Sydney Wanderers Ativo 76 / 59 40% 1 15.01.2027 -
Shaker Abu Husein Bnei Sakhnin Ativo 88 / 87 40% 4 07.01.2027 -
Abdul Naviko Nadroga Ativo 55 / 63 48% 1 03.01.2027 -
Valijon Rahimov Navbahor Ativo 90 / 87 40% 2 31.12.2026 -
Baek In-Hwan FC Tokyo Ativo 82 / 61 40% 2 25.12.2026 -
Keita Fukui Omiya Ardija Ativo 84 / 77 40% 1 25.12.2026 -
Tevita Koroi Ba Ativo 63 / 53 40% 1 18.12.2026 -
Faazil Ali Ba Ativo 48 / 52 40% 2 16.12.2026 -
Rocky Junior Nadi Ativo 59 / 48 40% 1 15.12.2026 -
Christopher Wasasala Labasa Ativo 67 / 61 40% 1 12.12.2026 -
Roman Khadjiev Mashal Ativo 98 / 97 40% 1 26.11.2026 -
Yonatan Shani Hapoel Beer Sheva Ativo 39 / 71 40% 3 23.11.2026 -
Hafizh Rizkianur Persija Ativo 72 / 48 40% 1 08.10.2026 -
Izzatullo Abdulhaqov Mashal Ativo 78 / 91 40% 2 02.10.2026 -
Federico Montiel Agropecuario Argentino Ativo 73 / 107 40% 1 28.08.2026 -
Ignacio Abarza Huracán Ativo 72 / 82 40% 1 26.08.2026 -
Francisco La Mantia Caracas Ativo 107 / 111 40% 1 21.08.2026 -
Henry Rochón Plaza Colonia Ativo 70 / 59 40% 1 21.08.2026 -
Thomás Rojas Quilmes Ativo 98 / 71 40% 1 18.08.2026 -
Iarley Alayo Huracán Ativo 93 / 94 40% 1 18.08.2026 -
Gerónimo Montivero Godoy Cruz Ativo 71 / 104 40% 1 16.08.2026 -
Kevin Romero Racing Ativo 83 / 101 40% 1 11.08.2026 -
Marcos Carrera Atlético Tucumán Ativo 80 / 108 40% 1 09.08.2026 -
Joaquín Rivero Instituto Ativo 88 / 75 40% 1 08.08.2026 -
Francisco Garrido Ferro Carril Oeste Ativo 80 / 70 40% 1 07.08.2026 -
Agustín Heredia Boca Juniors Ativo 122 / 88 40% 1 04.08.2026 -
Genaro Giordani Gimnasia y Esgrima Ativo 72 / 108 40% 1 03.08.2026 -
Máximo Cabral Danubio Ativo 86 / 73 40% 1 03.08.2026 -
Jáder Maza Ativo 102 / 96 40% 1 02.08.2026 -
Gonzalo Asis Almagro Ativo 107 / 119 40% 1 02.08.2026 -
Germán Ferreyra Western Sydney Wanderers Ativo 98 / 108 40% 1 01.08.2026 -